| time (UTC) | temp F | wind direction | speed knots | gust knots | rain 1hr in | rain 24hr in | rain mn in | humidity % | barometer mb |
| 20260831111639 | 68 | 291 | 0.0 | 0.0 | 0.00 | 0.00 | 0.00 | 99 | 1015.5 |
| 20260831111135 | 68 | 290 | 0.0 | 0.0 | 0.00 | 0.00 | 0.00 | 99 | 1015.5 |
| 20260831110631 | 68 | 286 | 0.0 | 0.0 | 0.00 | 0.00 | 0.00 | 99 | 1015.6 |
| 20260831110126 | 68 | 286 | 0.0 | 0.0 | 0.00 | 0.00 | 0.00 | 99 | 1015.8 |
| 20260831105625 | 68 | 285 | 0.0 | 0.0 | 0.00 | 0.00 | 0.00 | 99 | 1015.8 |
| 20260831105120 | 68 | 292 | 0.0 | 0.0 | 0.00 | 0.00 | 0.00 | 99 | 1015.8 |
| 20260831104615 | 68 | 281 | 0.0 | 0.0 | 0.00 | 0.00 | 0.00 | 99 | 1015.9 |
| 20260831104112 | 68 | 313 | 0.0 | 0.0 | 0.00 | 0.00 | 0.00 | 99 | 1015.9 |
| 20260831103606 | 68 | 320 | 0.0 | 0.0 | 0.00 | 0.00 | 0.00 | 99 | 1015.7 |
| 20260831103057 | 68 | 318 | 0.0 | 0.0 | 0.00 | 0.00 | 0.00 | 99 | 1015.6 |
| 20260831102556 | 68 | 309 | 0.0 | 0.0 | 0.00 | 0.00 | 0.00 | 99 | 1015.8 |
| 20260831102052 | 68 | 298 | 0.0 | 0.0 | 0.00 | 0.00 | 0.00 | 99 | 1015.7 |
| 20260831101546 | 68 | 318 | 0.0 | 0.0 | 0.00 | 0.00 | 0.00 | 99 | 1015.6 |
| 20260831101043 | 67 | 312 | 0.0 | 0.0 | 0.00 | 0.00 | 0.00 | 99 | 1015.9 |
| 20260831100538 | 67 | 312 | 0.0 | 0.0 | 0.00 | 0.00 | 0.00 | 99 | 1015.7 |
| 20260831100034 | 67 | 316 | 0.0 | 0.0 | 0.00 | 0.00 | 0.00 | 99 | 1015.6 |
| 20260831095532 | 67 | 305 | 0.0 | 0.0 | 0.00 | 0.00 | 0.00 | 99 | 1015.7 |
| 20260831095032 | 67 | 289 | 0.0 | 0.0 | 0.00 | 0.00 | 0.00 | 99 | 1015.3 |
| 20260831094529 | 67 | 295 | 0.0 | 0.0 | 0.00 | 0.00 | 0.00 | 99 | 1015.4 |
| 20260831094024 | 67 | 289 | 0.0 | 0.0 | 0.00 | 0.00 | 0.00 | 99 | 1015.6 |
| 20260831093519 | 67 | 303 | 0.0 | 0.0 | 0.00 | 0.00 | 0.00 | 99 | 1015.4 |
| 20260831093016 | 67 | 285 | 0.0 | 0.0 | 0.00 | 0.00 | 0.00 | 99 | 1015.6 |
| 20260831092511 | 67 | 299 | 0.0 | 0.0 | 0.00 | 0.00 | 0.00 | 99 | 1015.6 |
| 20260831092007 | 67 | 317 | 0.0 | 0.0 | 0.00 | 0.00 | 0.00 | 99 | 1015.6 |
| 20260831091502 | 67 | 317 | 0.0 | 0.0 | 0.00 | 0.00 | 0.00 | 99 | 1015.5 |
| 20260831090956 | 67 | 311 | 0.0 | 0.0 | 0.00 | 0.00 | 0.00 | 99 | 1015.6 |
| 20260831090453 | 67 | 304 | 0.0 | 0.0 | 0.00 | 0.00 | 0.00 | 99 | 1015.6 |
| 20260831085948 | 67 | 287 | 0.0 | 0.0 | 0.00 | 0.00 | 0.00 | 99 | 1015.4 |
| 20260831085444 | 67 | 343 | 0.0 | 0.0 | 0.00 | 0.00 | 0.00 | 99 | 1015.3 |
| 20260831084943 | 67 | 328 | 0.0 | 0.0 | 0.00 | 0.00 | 0.00 | 99 | 1015.5 |
| 20260831084439 | 67 | 291 | 0.0 | 0.0 | 0.00 | 0.00 | 0.00 | 99 | 1015.4 |
| 20260831083936 | 67 | 303 | 0.0 | 0.0 | 0.00 | 0.00 | 0.00 | 99 | 1015.2 |
| 20260831083430 | 67 | 289 | 0.0 | 0.0 | 0.00 | 0.00 | 0.00 | 99 | 1015.5 |
| 20260831082929 | 67 | 309 | 0.0 | 0.0 | 0.00 | 0.00 | 0.00 | 99 | 1015.2 |
| 20260831082424 | 67 | 309 | 0.0 | 0.0 | 0.00 | 0.00 | 0.00 | 99 | 1015.0 |
| 20260831081919 | 67 | 299 | 0.0 | 0.0 | 0.00 | 0.00 | 0.00 | 99 | 1015.1 |
| 20260831081415 | 67 | 280 | 0.0 | 0.0 | 0.00 | 0.00 | 0.00 | 99 | 1015.1 |
| 20260831080911 | 67 | 304 | 0.0 | 0.0 | 0.00 | 0.00 | 0.00 | 99 | 1015.0 |
| 20260831080406 | 67 | 328 | 0.0 | 0.0 | 0.00 | 0.00 | 0.00 | 99 | 1015.1 |
| 20260831075901 | 67 | 310 | 0.0 | 0.0 | 0.00 | 0.00 | 0.00 | 99 | 1014.9 |
| 20260831075356 | 67 | 301 | 0.0 | 0.0 | 0.00 | 0.00 | 0.00 | 99 | 1015.1 |
| 20260831074851 | 68 | 290 | 0.0 | 0.0 | 0.00 | 0.00 | 0.00 | 99 | 1015.0 |
| 20260831074350 | 68 | 295 | 0.0 | 0.0 | 0.00 | 0.00 | 0.00 | 99 | 1015.0 |
| 20260831073846 | 68 | 305 | 0.0 | 0.0 | 0.00 | 0.00 | 0.00 | 98 | 1015.2 |
| 20260831073345 | 68 | 322 | 0.0 | 0.0 | 0.00 | 0.00 | 0.00 | 98 | 1015.1 |
| 20260831072840 | 68 | 292 | 0.0 | 0.0 | 0.00 | 0.00 | 0.00 | 97 | 1015.3 |
| 20260831072336 | 69 | 292 | 0.0 | 0.0 | 0.00 | 0.00 | 0.00 | 96 | 1015.3 |
| 20260831071832 | 69 | 313 | 0.0 | 0.0 | 0.00 | 0.00 | 0.00 | 96 | 1015.4 |
| 20260831071331 | 69 | 285 | 0.0 | 0.0 | 0.00 | 0.00 | 0.00 | 96 | 1015.4 |
| 20260831070826 | 69 | 283 | 0.0 | 0.0 | 0.00 | 0.00 | 0.00 | 96 | 1015.3 |
| 20260831070325 | 69 | 329 | 0.0 | 0.0 | 0.00 | 0.00 | 0.00 | 97 | 1015.7 |
| 20260831065824 | 69 | 251 | 0.0 | 0.0 | 0.00 | 0.00 | 0.00 | 97 | 1015.5 |
| 20260831065322 | 69 | 315 | 0.0 | 0.0 | 0.00 | 0.00 | 0.00 | 97 | 1015.3 |
| 20260831064817 | 69 | 315 | 0.0 | 0.9 | 0.00 | 0.00 | 0.00 | 97 | 1015.8 |
| 20260831064313 | 69 | 319 | 0.0 | 0.0 | 0.00 | 0.00 | 0.00 | 96 | 1015.7 |
| 20260831063809 | 69 | 292 | 0.0 | 0.0 | 0.00 | 0.00 | 0.00 | 96 | 1015.6 |
| 20260831063304 | 69 | 285 | 0.0 | 0.0 | 0.00 | 0.00 | 0.00 | 95 | 1015.6 |
| 20260831062803 | 70 | 287 | 0.0 | 0.0 | 0.00 | 0.00 | 0.00 | 95 | 1015.8 |
| 20260831062258 | 70 | 274 | 0.0 | 0.0 | 0.00 | 0.00 | 0.00 | 95 | 1015.6 |
| 20260831061756 | 70 | 286 | 0.0 | 0.0 | 0.00 | 0.00 | 0.00 | 94 | 1015.7 |
| 20260831061251 | 70 | 297 | 0.0 | 0.0 | 0.00 | 0.00 | 0.00 | 94 | 1016.1 |
| 20260831060748 | 70 | 293 | 0.0 | 0.0 | 0.00 | 0.00 | 0.00 | 94 | 1015.9 |
| 20260831060247 | 70 | 280 | 0.0 | 0.9 | 0.00 | 0.00 | 0.00 | 94 | 1015.9 |
| 20260831055747 | 70 | 293 | 0.0 | 0.0 | 0.00 | 0.00 | 0.00 | 94 | 1016.0 |
| 20260831055242 | 70 | 271 | 0.9 | 1.7 | 0.00 | 0.00 | 0.00 | 94 | 1016.2 |
| 20260831054737 | 70 | 279 | 0.0 | 0.0 | 0.00 | 0.00 | 0.00 | 94 | 1016.0 |
| 20260831054232 | 71 | 296 | 0.0 | 0.0 | 0.00 | 0.00 | 0.00 | 93 | 1016.0 |
| 20260831053731 | 71 | 286 | 0.0 | 0.0 | 0.00 | 0.00 | 0.00 | 93 | 1015.8 |
| 20260831053230 | 71 | 258 | 0.9 | 1.7 | 0.00 | 0.00 | 0.00 | 93 | 1015.8 |
| 20260831052729 | 71 | 287 | 0.0 | 0.0 | 0.00 | 0.00 | 0.00 | 92 | 1016.1 |
| 20260831052223 | 71 | 271 | 0.0 | 0.9 | 0.00 | 0.00 | 0.00 | 92 | 1015.9 |
| 20260831051722 | 71 | 340 | 0.0 | 0.0 | 0.00 | 0.00 | 0.00 | 92 | 1015.9 |
| 20260831051220 | 71 | 265 | 0.9 | 0.9 | 0.00 | 0.00 | 0.00 | 92 | 1016.0 |
| 20260831050715 | 71 | 290 | 0.9 | 0.9 | 0.00 | 0.00 | 0.00 | 92 | 1015.9 |
| 20260831050214 | 72 | 336 | 0.0 | 0.0 | 0.00 | 0.00 | 0.00 | 91 | 1016.0 |
| 20260831045709 | 72 | 304 | 0.0 | 0.9 | 0.00 | 0.00 | 0.00 | 91 | 1015.8 |
| 20260831045203 | 72 | 280 | 0.9 | 1.7 | 0.00 | 0.00 | 0.00 | 91 | 1015.9 |
| 20260831044658 | 72 | 242 | 4.3 | 6.1 | 0.00 | 0.00 | 0.00 | 91 | 1015.6 |
| 20260831044154 | 72 | 269 | 0.0 | 0.0 | 0.00 | 0.00 | 0.00 | 92 | 1016.0 |
| 20260831043649 | 72 | 295 | 0.0 | 0.0 | 0.00 | 0.00 | 0.00 | 92 | 1015.9 |
| 20260831043144 | 72 | 257 | 0.0 | 0.9 | 0.00 | 0.00 | 0.00 | 92 | 1015.9 |
| 20260831042643 | 72 | 277 | 1.7 | 1.7 | 0.00 | 0.00 | 0.00 | 93 | 1015.9 |
| 20260831042138 | 72 | 220 | 0.9 | 1.7 | 0.00 | 0.00 | 0.00 | 93 | 1015.6 |
| 20260831041632 | 71 | 308 | 1.7 | 1.7 | 0.00 | 0.00 | 0.00 | 93 | 1015.6 |
| 20260831041127 | 71 | 280 | 0.9 | 0.9 | 0.00 | 0.00 | 0.00 | 94 | 1015.8 |
| 20260831040622 | 71 | 295 | 1.7 | 2.6 | 0.00 | 0.00 | 0.00 | 94 | 1015.8 |
| 20260831040121 | 71 | 261 | 0.9 | 0.9 | 0.00 | 0.00 | 0.00 | 94 | 1015.9 |
| 20260831035620 | 71 | 285 | 1.7 | 1.7 | 0.00 | 1.01 | 1.01 | 94 | 1015.8 |
| 20260831035115 | 71 | 294 | 0.9 | 0.9 | 0.00 | 1.01 | 1.01 | 94 | 1016.0 |
| 20260831034614 | 71 | 217 | 0.9 | 0.9 | 0.00 | 1.01 | 1.01 | 94 | 1016.0 |
| 20260831034109 | 71 | 21 | 0.0 | 0.9 | 0.00 | 1.01 | 1.01 | 93 | 1015.9 |
| 20260831033605 | 71 | 266 | 0.9 | 0.9 | 0.00 | 1.01 | 1.01 | 94 | 1015.9 |
| 20260831033100 | 71 | 228 | 0.0 | 0.0 | 0.00 | 1.01 | 1.01 | 94 | 1015.9 |
| 20260831032559 | 71 | 66 | 0.0 | 0.0 | 0.00 | 1.01 | 1.01 | 94 | 1015.8 |
| 20260831032055 | 71 | 288 | 0.0 | 0.0 | 0.00 | 1.01 | 1.01 | 94 | 1015.9 |
| 20260831031554 | 71 | 254 | 0.0 | 0.0 | 0.00 | 1.01 | 1.01 | 94 | 1015.9 |
| 20260831031054 | 71 | 260 | 0.0 | 0.0 | 0.00 | 1.01 | 1.01 | 94 | 1015.7 |
| 20260831030553 | 71 | 252 | 0.0 | 0.0 | 0.00 | 1.01 | 1.01 | 94 | 1015.7 |
| 20260831030052 | 71 | 14 | 0.0 | 0.0 | 0.00 | 1.01 | 1.01 | 94 | 1015.7 |
| 20260831025551 | 71 | 297 | 0.9 | 1.7 | 0.00 | 1.01 | 1.01 | 94 | 1015.9 |
| 20260831025046 | 71 | 58 | 0.0 | 0.9 | 0.00 | 1.01 | 1.01 | 94 | 1015.9 |
| 20260831024542 | 71 | 312 | 0.0 | 0.9 | 0.00 | 1.01 | 1.01 | 94 | 1015.8 |
| 20260831024041 | 71 | 298 | 0.9 | 0.9 | 0.00 | 1.01 | 1.01 | 94 | 1015.7 |
| 20260831023539 | 71 | 189 | 0.0 | 0.0 | 0.00 | 1.01 | 1.01 | 94 | 1015.5 |
| 20260831023034 | 71 | 305 | 0.0 | 0.0 | 0.00 | 1.01 | 1.01 | 93 | 1015.7 |
| 20260831022533 | 71 | 320 | 0.0 | 0.0 | 0.00 | 1.01 | 1.01 | 93 | 1015.3 |
| 20260831022029 | 71 | 27 | 0.0 | 0.0 | 0.00 | 1.01 | 1.01 | 93 | 1015.3 |
| 20260831021527 | 71 | 22 | 0.0 | 0.0 | 0.00 | 1.01 | 1.01 | 93 | 1015.4 |
| 20260831021024 | 71 | 301 | 0.9 | 0.9 | 0.00 | 1.01 | 1.01 | 93 | 1015.4 |
| 20260831020519 | 71 | 30 | 0.0 | 0.0 | 0.00 | 1.01 | 1.01 | 92 | 1015.6 |
| 20260831020014 | 71 | 280 | 0.0 | 0.0 | 0.00 | 1.01 | 1.01 | 92 | 1015.3 |
| 20260831015509 | 71 | 144 | 0.0 | 0.9 | 0.00 | 1.01 | 1.01 | 92 | 1015.3 |
| 20260831015004 | 71 | 100 | 1.7 | 1.7 | 0.00 | 1.01 | 1.01 | 92 | 1015.5 |
| 20260831014458 | 71 | 71 | 0.0 | 0.0 | 0.00 | 1.01 | 1.01 | 92 | 1015.5 |
| 20260831013954 | 71 | 265 | 0.0 | 0.0 | 0.00 | 1.01 | 1.01 | 91 | 1015.2 |
| 20260831013450 | 71 | 313 | 0.0 | 0.0 | 0.00 | 1.01 | 1.01 | 91 | 1015.2 |
| 20260831012943 | 71 | 314 | 0.0 | 0.0 | 0.00 | 1.01 | 1.01 | 91 | 1015.1 |
| 20260831012439 | 71 | 287 | 0.9 | 0.9 | 0.00 | 1.01 | 1.01 | 91 | 1015.0 |
| 20260831011938 | 72 | 297 | 0.0 | 0.9 | 0.00 | 1.01 | 1.01 | 90 | 1015.0 |
| 20260831011433 | 72 | 266 | 1.7 | 2.6 | 0.00 | 1.01 | 1.01 | 90 | 1014.8 |
| 20260831010929 | 72 | 31 | 0.0 | 0.0 | 0.00 | 1.01 | 1.01 | 91 | 1014.9 |
| 20260831010424 | 71 | 208 | 0.0 | 0.0 | 0.00 | 1.01 | 1.01 | 91 | 1014.8 |
| 20260831005920 | 71 | 271 | 0.0 | 0.0 | 0.00 | 1.01 | 1.01 | 91 | 1015.0 |
| 20260831005415 | 71 | 187 | 0.0 | 0.0 | 0.00 | 1.01 | 1.01 | 91 | 1014.8 |
| 20260831004909 | 72 | 233 | 0.9 | 0.9 | 0.00 | 1.01 | 1.01 | 91 | 1014.8 |
| 20260831004406 | 72 | 190 | 0.9 | 0.9 | 0.00 | 1.01 | 1.01 | 90 | 1014.6 |
| 20260831003901 | 72 | 228 | 0.0 | 0.0 | 0.00 | 1.01 | 1.01 | 90 | 1014.7 |
| 20260831003357 | 72 | 15 | 0.0 | 0.9 | 0.00 | 1.01 | 1.01 | 89 | 1014.6 |
| 20260831002857 | 72 | 201 | 0.9 | 2.6 | 0.00 | 1.01 | 1.01 | 90 | 1014.6 |
| 20260831002356 | 73 | 297 | 0.0 | 0.0 | 0.00 | 1.01 | 1.01 | 89 | 1014.4 |
| 20260831001851 | 73 | 354 | 0.0 | 0.0 | 0.00 | 1.01 | 1.01 | 89 | 1014.6 |
| 20260831001351 | 73 | 45 | 0.0 | 0.0 | 0.00 | 1.01 | 1.01 | 89 | 1014.6 |
| 20260831000849 | 73 | 338 | 0.0 | 0.0 | 0.00 | 1.01 | 1.01 | 88 | 1014.8 |
| 20260831000344 | 73 | 276 | 0.0 | 0.0 | 0.00 | 1.01 | 1.01 | 88 | 1014.9 |
| 20260830235842 | 73 | 67 | 0.9 | 1.7 | 0.00 | 1.01 | 1.01 | 88 | 1014.7 |
| 20260830235337 | 73 | 20 | 0.0 | 0.9 | 0.00 | 1.01 | 1.01 | 87 | 1014.7 |
| 20260830234833 | 73 | 333 | 0.0 | 0.0 | 0.00 | 1.01 | 1.01 | 88 | 1014.6 |
| 20260830234328 | 73 | 287 | 0.0 | 0.9 | 0.00 | 1.01 | 1.01 | 88 | 1014.8 |
| 20260830233824 | 73 | 198 | 2.6 | 2.6 | 0.00 | 1.01 | 1.01 | 88 | 1014.6 |
| 20260830233319 | 73 | 251 | 1.7 | 2.6 | 0.00 | 1.01 | 1.01 | 87 | 1015.0 |
| 20260830232815 | 74 | 79 | 0.0 | 0.0 | 0.00 | 1.01 | 1.01 | 87 | 1014.8 |
| 20260830232310 | 74 | 280 | 0.0 | 0.0 | 0.00 | 1.01 | 1.01 | 87 | 1014.8 |
| 20260830231807 | 75 | 205 | 0.9 | 1.7 | 0.00 | 1.01 | 1.01 | 86 | 1014.5 |
| 20260830231307 | 75 | 37 | 0.0 | 0.9 | 0.00 | 1.01 | 1.01 | 85 | 1014.7 |
| 20260830230801 | 75 | 65 | 0.9 | 1.7 | 0.00 | 1.01 | 1.01 | 85 | 1014.7 |
| 20260830230257 | 75 | 248 | 0.0 | 0.0 | 0.00 | 1.01 | 1.01 | 85 | 1014.8 |
| 20260830225756 | 75 | 206 | 0.0 | 0.0 | 0.00 | 1.01 | 1.01 | 85 | 1014.7 |
| 20260830225251 | 75 | 47 | 0.9 | 0.9 | 0.00 | 1.01 | 1.01 | 84 | 1014.8 |
| 20260830224750 | 75 | 295 | 0.0 | 0.0 | 0.00 | 1.01 | 1.01 | 84 | 1014.9 |
| 20260830224246 | 75 | 184 | 1.7 | 1.7 | 0.00 | 1.01 | 1.01 | 83 | 1014.9 |
| 20260830223743 | 76 | 228 | 0.9 | 0.9 | 0.00 | 1.01 | 1.01 | 83 | 1015.1 |
| 20260830223238 | 76 | 222 | 0.0 | 0.0 | 0.00 | 1.01 | 1.01 | 82 | 1015.0 |
| 20260830222732 | 76 | 206 | 0.0 | 0.9 | 0.00 | 1.01 | 1.01 | 82 | 1015.2 |
| 20260830222227 | 77 | 12 | 0.0 | 0.0 | 0.00 | 1.01 | 1.01 | 82 | 1015.3 |
| 20260830221723 | 77 | 201 | 0.9 | 0.9 | 0.00 | 1.01 | 1.01 | 81 | 1015.4 |
| 20260830221220 | 76 | 27 | 0.0 | 0.0 | 0.00 | 1.01 | 1.01 | 82 | 1015.4 |
| 20260830220715 | 76 | 99 | 0.9 | 0.9 | 0.00 | 1.01 | 1.01 | 83 | 1015.1 |
| 20260830220214 | 76 | 145 | 1.7 | 1.7 | 0.00 | 1.01 | 1.01 | 82 | 1015.5 |
| 20260830215713 | 76 | 212 | 0.9 | 0.9 | 0.00 | 1.01 | 1.01 | 81 | 1015.5 |
| 20260830215207 | 75 | 288 | 0.9 | 0.9 | 0.00 | 1.01 | 1.01 | 83 | 1015.7 |
| 20260830214657 | 75 | 220 | 1.7 | 1.7 | 0.00 | 1.01 | 1.01 | 83 | 1015.7 |
| 20260830214157 | 76 | 311 | 0.0 | 0.0 | 0.00 | 1.01 | 1.01 | 83 | 1015.4 |
| 20260830213656 | 76 | 283 | 1.7 | 1.7 | 0.00 | 1.01 | 1.01 | 83 | 1015.6 |
| 20260830213152 | 76 | 49 | 0.9 | 2.6 | 0.00 | 1.01 | 1.01 | 83 | 1015.4 |
| 20260830212648 | 77 | 288 | 0.0 | 0.9 | 0.00 | 1.01 | 1.01 | 82 | 1015.6 |
| 20260830212142 | 76 | 219 | 0.9 | 0.9 | 0.00 | 1.01 | 1.01 | 81 | 1015.5 |
| 20260830211637 | 75 | 277 | 0.0 | 0.0 | 0.00 | 1.01 | 1.01 | 83 | 1015.3 |
| 20260830211136 | 75 | 68 | 1.7 | 1.7 | 0.00 | 1.01 | 1.01 | 84 | 1015.7 |
| 20260830210633 | 74 | 244 | 0.0 | 0.9 | 0.00 | 1.01 | 1.01 | 85 | 1015.7 |
| 20260830210132 | 75 | 88 | 0.9 | 1.7 | 0.00 | 1.01 | 1.01 | 86 | 1016.0 |
| 20260830205629 | 75 | 292 | 0.9 | 0.9 | 0.00 | 1.01 | 1.01 | 86 | 1015.8 |
| 20260830205124 | 75 | 189 | 0.0 | 0.9 | 0.00 | 1.01 | 1.01 | 85 | 1015.6 |
| 20260830204624 | 75 | 274 | 0.0 | 0.9 | 0.00 | 1.01 | 1.01 | 85 | 1015.6 |
| 20260830204123 | 75 | 295 | 0.0 | 0.0 | 0.00 | 1.01 | 1.01 | 86 | 1015.8 |
| 20260830203619 | 75 | 285 | 0.9 | 1.7 | 0.00 | 1.01 | 1.01 | 86 | 1015.6 |
| 20260830203119 | 75 | 281 | 0.0 | 0.0 | 0.00 | 1.01 | 1.01 | 86 | 1015.6 |
| 20260830202619 | 75 | 297 | 0.0 | 0.9 | 0.00 | 1.01 | 1.01 | 87 | 1015.5 |
| 20260830202114 | 75 | 358 | 0.0 | 0.0 | 0.00 | 1.01 | 1.01 | 87 | 1015.6 |
| 20260830201614 | 75 | 245 | 1.7 | 1.7 | 0.00 | 1.01 | 1.01 | 86 | 1015.5 |
| 20260830201109 | 75 | 42 | 0.0 | 0.0 | 0.00 | 1.01 | 1.01 | 88 | 1015.5 |
| 20260830200605 | 75 | 98 | 1.7 | 1.7 | 0.00 | 1.01 | 1.01 | 87 | 1015.5 |
| 20260830200103 | 75 | 208 | 0.9 | 1.7 | 0.00 | 1.01 | 1.01 | 88 | 1015.4 |
| 20260830195559 | 74 | 323 | 0.0 | 0.0 | 0.00 | 1.01 | 1.01 | 89 | 1015.5 |
| 20260830195056 | 74 | 51 | 0.0 | 0.0 | 0.00 | 1.01 | 1.01 | 89 | 1015.7 |
| 20260830194551 | 74 | 215 | 0.0 | 0.9 | 0.00 | 1.01 | 1.01 | 89 | 1015.5 |
| 20260830194045 | 74 | 202 | 0.0 | 0.0 | 0.00 | 1.01 | 1.01 | 88 | 1015.4 |
| 20260830193544 | 74 | 183 | 0.0 | 0.0 | 0.00 | 1.01 | 1.01 | 89 | 1015.4 |
| 20260830193040 | 74 | 270 | 0.0 | 0.0 | 0.00 | 1.01 | 1.01 | 90 | 1015.7 |
| 20260830192535 | 74 | 252 | 0.0 | 0.0 | 0.00 | 1.01 | 1.01 | 90 | 1015.8 |
| 20260830192029 | 73 | 6 | 0.0 | 0.0 | 0.00 | 1.01 | 1.01 | 90 | 1015.9 |
| 20260830191525 | 73 | 75 | 1.7 | 2.6 | 0.00 | 1.01 | 1.01 | 92 | 1015.8 |
| 20260830191020 | 73 | 228 | 0.9 | 1.7 | 0.00 | 1.01 | 1.01 | 91 | 1016.0 |
| 20260830190515 | 73 | 186 | 0.9 | 1.7 | 0.00 | 1.01 | 1.01 | 91 | 1015.9 |
| 20260830190010 | 73 | 212 | 0.0 | 0.0 | 0.00 | 1.01 | 1.01 | 91 | 1016.0 |
| 20260830185504 | 73 | 299 | 0.0 | 0.0 | 0.00 | 1.01 | 1.01 | 92 | 1016.1 |
| 20260830185000 | 73 | 266 | 0.0 | 0.0 | 0.00 | 1.01 | 1.01 | 92 | 1015.9 |
| 20260830184459 | 73 | 304 | 0.0 | 0.0 | 0.00 | 1.01 | 1.01 | 92 | 1016.3 |
| 20260830183953 | 73 | 274 | 0.0 | 0.9 | 0.00 | 1.01 | 1.01 | 92 | 1016.3 |
| 20260830183448 | 73 | 286 | 0.0 | 0.0 | 0.00 | 1.01 | 1.01 | 92 | 1016.2 |
| 20260830182943 | 73 | 209 | 0.0 | 0.0 | 0.00 | 1.01 | 1.01 | 92 | 1016.2 |
| 20260830182438 | 73 | 277 | 0.0 | 0.0 | 0.00 | 1.01 | 1.01 | 92 | 1016.0 |
| 20260830181935 | 72 | 195 | 0.0 | 1.7 | 0.00 | 1.01 | 1.01 | 93 | 1016.0 |
| 20260830181431 | 72 | 201 | 1.7 | 1.7 | 0.00 | 1.01 | 1.01 | 93 | 1016.1 |
| 20260830180925 | 71 | 351 | 0.0 | 0.0 | 0.00 | 1.01 | 1.01 | 97 | 1016.1 |
| 20260830180425 | 70 | 320 | 0.0 | 0.0 | 0.00 | 1.01 | 1.01 | 99 | 1016.1 |
| 20260830175924 | 70 | 356 | 0.9 | 0.9 | 0.00 | 1.01 | 1.01 | 99 | 1016.1 |
| 20260830175423 | 69 | 68 | 0.0 | 0.0 | 0.00 | 1.01 | 1.01 | 99 | 1016.0 |
| 20260830174919 | 69 | 283 | 0.0 | 0.0 | 0.00 | 1.01 | 1.01 | 99 | 1016.3 |
| 20260830174414 | 68 | 264 | 0.0 | 0.0 | 0.00 | 1.01 | 1.01 | 99 | 1016.3 |
| 20260830173910 | 68 | 346 | 0.0 | 0.0 | 0.00 | 1.01 | 1.01 | 99 | 1016.3 |
| 20260830173405 | 68 | 262 | 0.9 | 0.9 | 0.00 | 1.01 | 1.01 | 99 | 1016.4 |
| 20260830172901 | 68 | 269 | 0.0 | 0.0 | 0.00 | 1.01 | 1.01 | 99 | 1016.3 |
| 20260830172357 | 67 | 274 | 0.0 | 0.9 | 0.00 | 1.01 | 1.01 | 99 | 1016.1 |
| 20260830171852 | 67 | 266 | 0.9 | 0.9 | 0.00 | 1.01 | 1.01 | 99 | 1016.4 |
| 20260830171348 | 67 | 307 | 0.0 | 0.0 | 0.00 | 1.01 | 1.01 | 99 | 1016.4 |
| 20260830170843 | 67 | 34 | 0.0 | 0.0 | 0.00 | 1.01 | 1.01 | 99 | 1016.6 |
| 20260830170342 | 67 | 44 | 0.0 | 0.0 | 0.00 | 1.01 | 1.01 | 99 | 1016.3 |
| 20260830165840 | 67 | 330 | 0.0 | 0.0 | 0.00 | 1.01 | 1.01 | 99 | 1016.5 |
| 20260830165337 | 66 | 296 | 0.0 | 0.0 | 0.00 | 1.01 | 1.01 | 99 | 1016.3 |
| 20260830164833 | 66 | 303 | 0.0 | 0.0 | 0.00 | 1.01 | 1.01 | 99 | 1016.5 |
| 20260830164328 | 67 | 276 | 0.9 | 0.9 | 0.00 | 1.01 | 1.01 | 99 | 1016.6 |
| 20260830163825 | 67 | 321 | 0.0 | 0.0 | 0.00 | 1.01 | 1.01 | 99 | 1016.4 |
| 20260830163320 | 66 | 245 | 3.5 | 5.2 | 0.00 | 1.01 | 1.01 | 99 | 1016.4 |
| 20260830162815 | 66 | 211 | 0.0 | 0.0 | 0.00 | 1.01 | 1.01 | 99 | 1016.6 |
| 20260830162311 | 66 | 249 | 0.0 | 0.0 | 0.00 | 1.01 | 1.01 | 99 | 1016.7 |
| 20260830161806 | 66 | 272 | 0.0 | 0.0 | 0.00 | 1.01 | 1.01 | 99 | 1016.9 |
| 20260830161305 | 66 | 172 | 2.6 | 2.6 | 0.00 | 1.01 | 1.01 | 99 | 1017.0 |
| 20260830160801 | 66 | 256 | 0.0 | 0.0 | 0.00 | 1.01 | 1.01 | 99 | 1016.9 |
| 20260830160300 | 65 | 227 | 0.0 | 0.0 | 0.00 | 1.01 | 1.01 | 99 | 1017.1 |
| 20260830155751 | 65 | 239 | 0.0 | 0.0 | 0.00 | 1.01 | 1.01 | 99 | 1017.4 |
| 20260830155248 | 65 | 301 | 1.7 | 1.7 | 0.07 | 1.01 | 1.01 | 99 | 1017.7 |
| 20260830154748 | 65 | 294 | 0.0 | 0.0 | 0.19 | 1.01 | 1.01 | 99 | 1017.6 |
| 20260830154243 | 65 | 196 | 0.0 | 0.0 | 0.12 | 1.00 | 1.00 | 99 | 1017.5 |
| 20260830153740 | 65 | 307 | 0.0 | 0.9 | 0.17 | 0.98 | 0.98 | 99 | 1017.7 |
| 20260830153235 | 65 | 84 | 0.9 | 0.9 | 0.24 | 0.98 | 0.98 | 99 | 1017.5 |
| 20260830152733 | 65 | 234 | 0.0 | 0.0 | 0.19 | 0.95 | 0.95 | 99 | 1017.9 |
| 20260830152228 | 65 | 299 | 0.0 | 0.0 | 0.19 | 0.94 | 0.94 | 99 | 1018.1 |
| 20260830151723 | 65 | 310 | 0.0 | 0.0 | 0.12 | 0.92 | 0.92 | 99 | 1017.8 |
| 20260830151222 | 65 | 91 | 0.9 | 1.7 | 0.05 | 0.91 | 0.91 | 99 | 1017.7 |
| 20260830150717 | 65 | 290 | 0.9 | 1.7 | 0.00 | 0.90 | 0.90 | 99 | 1017.6 |
| 20260830150211 | 65 | 317 | 0.9 | 1.7 | 0.07 | 0.90 | 0.90 | 99 | 1018.0 |
| 20260830145706 | 65 | 294 | 0.9 | 0.9 | 0.12 | 0.90 | 0.90 | 99 | 1017.9 |
| 20260830145201 | 65 | 27 | 0.0 | 0.0 | 0.12 | 0.89 | 0.89 | 99 | 1018.1 |
| 20260830144656 | 65 | 258 | 0.0 | 0.0 | 0.19 | 0.88 | 0.88 | 99 | 1018.1 |
| 20260830144152 | 65 | 298 | 0.0 | 0.0 | 0.17 | 0.87 | 0.87 | 99 | 1018.3 |
| 20260830143648 | 65 | 50 | 0.0 | 0.0 | 0.12 | 0.86 | 0.86 | 99 | 1018.2 |
| 20260830143146 | 65 | 47 | 0.0 | 0.0 | 0.12 | 0.84 | 0.84 | 99 | 1018.1 |
| 20260830142641 | 65 | 119 | 0.0 | 0.0 | 0.38 | 0.84 | 0.84 | 99 | 1018.6 |
| 20260830142136 | 65 | 327 | 0.0 | 0.0 | 0.38 | 0.82 | 0.82 | 99 | 1018.7 |
| 20260830141631 | 65 | 205 | 0.0 | 0.0 | 0.17 | 0.78 | 0.78 | 99 | 1018.5 |
| 20260830141126 | 65 | 282 | 0.0 | 0.0 | 0.17 | 0.76 | 0.76 | 99 | 1018.6 |
| 20260830140622 | 65 | 306 | 0.0 | 0.0 | 0.24 | 0.75 | 0.75 | 99 | 1018.2 |
| 20260830140121 | 65 | 316 | 0.0 | 0.0 | 0.19 | 0.73 | 0.73 | 99 | 1018.2 |
| 20260830135616 | 65 | 280 | 0.0 | 0.0 | 0.12 | 0.72 | 0.72 | 99 | 1018.4 |
| 20260830135111 | 65 | 104 | 0.0 | 0.0 | 0.12 | 0.70 | 0.70 | 99 | 1018.4 |
| 20260830134607 | 65 | 308 | 0.9 | 1.7 | 0.26 | 0.69 | 0.69 | 99 | 1018.5 |
| 20260830134102 | 65 | 211 | 0.0 | 0.0 | 0.31 | 0.68 | 0.68 | 99 | 1018.3 |
| 20260830133557 | 65 | 251 | 0.0 | 0.0 | 0.24 | 0.65 | 0.65 | 99 | 1018.7 |
| 20260830133052 | 65 | 294 | 0.0 | 0.9 | 0.28 | 0.63 | 0.63 | 99 | 1018.6 |
| 20260830132549 | 65 | 339 | 0.0 | 0.0 | 0.24 | 0.61 | 0.61 | 99 | 1018.1 |
| 20260830132043 | 65 | 207 | 0.0 | 0.0 | 0.17 | 0.59 | 0.59 | 99 | 1018.5 |
| 20260830131542 | 65 | 305 | 1.7 | 1.7 | 0.19 | 0.57 | 0.57 | 99 | 1018.5 |
| 20260830131037 | 65 | 282 | 0.0 | 0.0 | 0.26 | 0.56 | 0.56 | 99 | 1018.3 |
| 20260830130532 | 65 | 69 | 0.0 | 0.0 | 0.17 | 0.54 | 0.54 | 99 | 1018.1 |
| 20260830130028 | 65 | 281 | 0.0 | 0.0 | 0.19 | 0.53 | 0.53 | 99 | 1018.3 |
| 20260830125522 | 65 | 336 | 0.0 | 0.0 | 0.12 | 0.51 | 0.51 | 99 | 1018.6 |
| 20260830125021 | 65 | 293 | 0.0 | 0.0 | 0.05 | 0.50 | 0.50 | 99 | 1019.1 |
| 20260830124520 | 65 | 254 | 1.7 | 1.7 | 0.07 | 0.49 | 0.49 | 99 | 1018.7 |
| 20260830124016 | 65 | 49 | 0.0 | 0.0 | 0.12 | 0.49 | 0.49 | 99 | 1018.7 |
| 20260830123513 | 66 | 282 | 0.0 | 0.0 | 0.12 | 0.48 | 0.48 | 99 | 1018.6 |
| 20260830123008 | 65 | 304 | 0.0 | 0.0 | 0.19 | 0.47 | 0.47 | 99 | 1018.5 |
| 20260830122505 | 65 | 272 | 0.0 | 0.0 | 0.24 | 0.46 | 0.46 | 99 | 1018.6 |
| 20260830122000 | 66 | 288 | 0.0 | 0.9 | 0.19 | 0.44 | 0.44 | 99 | 1018.7 |
| 20260830121455 | 65 | 301 | 0.0 | 0.0 | 0.19 | 0.42 | 0.42 | 99 | 1018.2 |
| 20260830120949 | 65 | 187 | 0.0 | 0.9 | 0.24 | 0.41 | 0.41 | 99 | 1018.2 |
| 20260830120445 | 65 | 194 | 0.9 | 0.9 | 0.31 | 0.40 | 0.40 | 99 | 1018.2 |
| 20260830115941 | 65 | 73 | 0.0 | 0.0 | 0.28 | 0.37 | 0.37 | 99 | 1018.5 |
| 20260830115437 | 65 | 252 | 0.9 | 1.7 | 0.24 | 0.35 | 0.35 | 99 | 1018.6 |
| 20260830114933 | 65 | 284 | 0.0 | 0.0 | 0.26 | 0.32 | 0.32 | 99 | 1018.5 |
| 20260830114429 | 65 | 310 | 0.0 | 0.0 | 0.19 | 0.30 | 0.30 | 99 | 1018.4 |
| 20260830113929 | 65 | 325 | 0.0 | 0.9 | 0.12 | 0.28 | 0.28 | 99 | 1018.2 |
| 20260830113424 | 65 | 272 | 0.0 | 0.0 | 0.24 | 0.27 | 0.27 | 99 | 1018.4 |
| 20260830112919 | 65 | 59 | 0.0 | 0.0 | 0.28 | 0.26 | 0.26 | 99 | 1018.0 |
| 20260830112416 | 65 | 316 | 0.0 | 0.0 | 0.24 | 0.23 | 0.23 | 99 | 1018.0 |